Location: *
(51.0333°S, 178.4667°E)
Time: 21:38:11
(UTC+00:00)

STARLINK-77 - Pass Details

Date: 15 November 2019
Orbit: 529 x 530 km, 53.0° (Epoch: 09 December)

Event Time Altitude Azimuth Distance (km) Brightness Sun altitude
Rises 11:11:38 0° 252° (WSW) 2,684 7.5 -20.0°
Reaches altitude 10° 11:13:51 10° 252° (WSW) 1,793 6.6 -20.0°
Maximum altitude 11:17:55 80° 337° (NNW) 549 3.4 -20.1°
Enters shadow 11:18:47 54° 53° (NE) 657 3.7 -20.1°
